20171 USSS-USSS

Flight info

Callsign 20171
Flight time 0h 32m
Altitude 1500
Route DCT 5639N06048E/RODUG DCT ZZZZ DCT 5639N06042E/ENUSI 5643N06043E/USEGA DCT
Aircraft MI2/L-V/N

Departure

Time 2026-05-05 09:18
Airport Koltsovo Airport (USSS)

Arrival

Time 2026-05-05 09:50
Airport Koltsovo Airport (USSS)
Time Latitude Longitude Altitude Speed Heading
2026-05-05 08:57 56.74783 60.81740 771 ft 0 kts 180°
2026-05-05 09:11 56.74780 60.81740 771 ft 2 kts 179°
2026-05-05 09:12 56.74765 60.81740 771 ft 3 kts 179°
2026-05-05 09:12 56.74742 60.81749 771 ft 4 kts 142°
2026-05-05 09:12 56.74735 60.81799 771 ft 4 kts 91°
2026-05-05 09:12 56.74741 60.81852 771 ft 5 kts 54°
2026-05-05 09:13 56.74763 60.81907 771 ft 6 kts 53°
2026-05-05 09:13 56.74791 60.81971 771 ft 6 kts 46°
2026-05-05 09:13 56.74808 60.82042 771 ft 8 kts 111°
2026-05-05 09:13 56.74780 60.82134 771 ft 9 kts 120°
2026-05-05 09:14 56.74737 60.82201 770 ft 8 kts 173°
2026-05-05 09:14 56.74682 60.82199 770 ft 8 kts 195°
2026-05-05 09:14 56.74660 60.82125 770 ft 6 kts 272°
2026-05-05 09:14 56.74659 60.82062 770 ft 4 kts 269°
2026-05-05 09:15 56.74659 60.82022 770 ft 0 kts 270°
2026-05-05 09:15 56.74659 60.82021 770 ft 1 kts 271°
2026-05-05 09:15 56.74659 60.82016 776 ft 1 kts 272°
2026-05-05 09:16 56.74658 60.82022 784 ft 1 kts 266°
2026-05-05 09:16 56.74655 60.82004 803 ft 5 kts 270°
2026-05-05 09:16 56.74658 60.81749 876 ft 35 kts 271°
2026-05-05 09:16 56.74655 60.81182 965 ft 55 kts 272°
2026-05-05 09:17 56.74658 60.80387 1033 ft 68 kts 275°
2026-05-05 09:17 56.74653 60.79488 1091 ft 74 kts 274°
2026-05-05 09:17 56.74637 60.78503 1174 ft 81 kts 273°
2026-05-05 09:17 56.74627 60.77470 1233 ft 81 kts 275°
2026-05-05 09:18 56.74597 60.76444 1318 ft 83 kts 271°
2026-05-05 09:18 56.74313 60.75514 1356 ft 93 kts 221°
2026-05-05 09:18 56.73679 60.75369 1381 ft 95 kts 176°
2026-05-05 09:18 56.73045 60.75655 1428 ft 93 kts 169°
2026-05-05 09:19 56.72438 60.76009 1499 ft 89 kts 165°
2026-05-05 09:19 56.71848 60.76415 1536 ft 92 kts 162°
2026-05-05 09:19 56.71218 60.76810 1554 ft 101 kts 163°
2026-05-05 09:19 56.70524 60.77206 1515 ft 105 kts 166°
2026-05-05 09:20 56.69830 60.77564 1542 ft 103 kts 167°
2026-05-05 09:20 56.69138 60.77905 1569 ft 101 kts 169°
2026-05-05 09:20 56.68482 60.78274 1566 ft 99 kts 164°
2026-05-05 09:20 56.67829 60.78701 1602 ft 103 kts 163°
2026-05-05 09:21 56.67149 60.79185 1588 ft 105 kts 161°
2026-05-05 09:21 56.66453 60.79632 1561 ft 107 kts 164°
2026-05-05 09:21 56.65760 60.80058 1514 ft 103 kts 165°
2026-05-05 09:21 56.65095 60.80496 1503 ft 100 kts 163°
2026-05-05 09:22 56.64462 60.80953 1532 ft 96 kts 161°
2026-05-05 09:22 56.63829 60.81440 1577 ft 103 kts 157°
2026-05-05 09:22 56.63153 60.81995 1556 ft 110 kts 159°
2026-05-05 09:22 56.62448 60.82592 1544 ft 112 kts 158°
2026-05-05 09:23 56.61764 60.83203 1499 ft 105 kts 158°
2026-05-05 09:23 56.61133 60.83772 1548 ft 98 kts 160°
2026-05-05 09:23 56.60507 60.84279 1568 ft 102 kts 161°
2026-05-05 09:23 56.59832 60.84741 1527 ft 103 kts 165°
2026-05-05 09:24 56.59145 60.85149 1498 ft 103 kts 167°
2026-05-05 09:24 56.58474 60.85542 1488 ft 98 kts 169°
2026-05-05 09:24 56.57845 60.85903 1426 ft 90 kts 171°
2026-05-05 09:24 56.57281 60.86246 1308 ft 80 kts 169°
2026-05-05 09:25 56.56837 60.86561 1249 ft 58 kts 168°
2026-05-05 09:25 56.56517 60.86864 1187 ft 50 kts 165°
2026-05-05 09:25 56.56318 60.87068 1159 ft 47 kts 173°
2026-05-05 09:25 56.55969 60.87396 1078 ft 33 kts 182°
2026-05-05 09:26 56.55847 60.87497 1014 ft 25 kts 192°
2026-05-05 09:26 56.55714 60.87566 872 ft 13 kts 197°
2026-05-05 09:26 56.55641 60.87583 813 ft 10 kts 193°
2026-05-05 09:26 56.55594 60.87553 792 ft 5 kts 204°
2026-05-05 09:27 56.55557 60.87520 776 ft 5 kts 206°
2026-05-05 09:27 56.55532 60.87506 751 ft 3 kts 217°
2026-05-05 09:27 56.55516 60.87507 740 ft 2 kts 254°
2026-05-05 09:27 56.55513 60.87497 737 ft 1 kts 274°
2026-05-05 09:28 56.55513 60.87494 728 ft 1 kts 282°
2026-05-05 09:28 56.55513 60.87491 724 ft 0 kts 282°
2026-05-05 09:34 56.55514 60.87489 730 ft 0 kts 287°
2026-05-05 09:34 56.55518 60.87472 749 ft 7 kts 316°
2026-05-05 09:34 56.55601 60.87310 847 ft 27 kts 311°
2026-05-05 09:35 56.55769 60.87019 989 ft 37 kts 308°
2026-05-05 09:35 56.56223 60.86124 1271 ft 57 kts 313°
2026-05-05 09:35 56.56499 60.85564 1405 ft 61 kts 309°
2026-05-05 09:36 56.56795 60.84947 1526 ft 65 kts 311°
2026-05-05 09:36 56.57106 60.84308 1609 ft 71 kts 311°
2026-05-05 09:36 56.57426 60.83564 1655 ft 79 kts 308°
2026-05-05 09:36 56.57748 60.82748 1599 ft 77 kts 308°
2026-05-05 09:37 56.58045 60.81941 1680 ft 77 kts 306°
2026-05-05 09:37 56.58348 60.81126 1714 ft 78 kts 310°
2026-05-05 09:37 56.58661 60.80311 1705 ft 80 kts 311°
2026-05-05 09:37 56.59006 60.79473 1705 ft 84 kts 314°
2026-05-05 09:38 56.59361 60.78651 1693 ft 80 kts 312°
2026-05-05 09:38 56.59697 60.77882 1722 ft 78 kts 314°
2026-05-05 09:38 56.60031 60.77110 1698 ft 77 kts 313°
2026-05-05 09:38 56.60375 60.76373 1697 ft 76 kts 316°
2026-05-05 09:39 56.60714 60.75684 1676 ft 69 kts 314°
2026-05-05 09:39 56.61013 60.75094 1739 ft 61 kts 310°
2026-05-05 09:39 56.61301 60.74505 1757 ft 64 kts 313°
2026-05-05 09:39 56.61603 60.73896 1762 ft 66 kts 314°
2026-05-05 09:40 56.61920 60.73247 1797 ft 73 kts 314°
2026-05-05 09:40 56.62296 60.72570 1802 ft 79 kts 318°
2026-05-05 09:40 56.62725 60.71888 1733 ft 83 kts 321°
2026-05-05 09:40 56.63177 60.71274 1716 ft 79 kts 328°
2026-05-05 09:41 56.63635 60.70783 1690 ft 74 kts 329°
2026-05-05 09:41 56.64070 60.70423 1704 ft 64 kts 333°
2026-05-05 09:41 56.64500 60.70120 1748 ft 71 kts 337°
2026-05-05 09:41 56.64995 60.69903 1777 ft 74 kts 353°
2026-05-05 09:42 56.65518 60.69897 1779 ft 76 kts 358°
2026-05-05 09:42 56.66026 60.69894 1805 ft 72 kts 358°
2026-05-05 09:42 56.66521 60.69876 1817 ft 70 kts 356°
2026-05-05 09:42 56.67001 60.69862 1805 ft 68 kts 358°
2026-05-05 09:43 56.67467 60.69820 1802 ft 67 kts 355°
2026-05-05 09:43 56.67943 60.69816 1852 ft 72 kts 360°
2026-05-05 09:43 56.68473 60.69862 1867 ft 81 kts
2026-05-05 09:43 56.69048 60.69974 1850 ft 84 kts
2026-05-05 09:44 56.69637 60.70139 1795 ft 85 kts
2026-05-05 09:44 56.70185 60.70343 1785 ft 75 kts
2026-05-05 09:44 56.70683 60.70501 1820 ft 71 kts
2026-05-05 09:44 56.71173 60.70616 1861 ft 69 kts
2026-05-05 09:45 56.71662 60.70721 1845 ft 73 kts
2026-05-05 09:45 56.72160 60.70979 1843 ft 74 kts 26°
2026-05-05 09:45 56.72499 60.71642 1892 ft 72 kts 64°
2026-05-05 09:45 56.72633 60.72565 1925 ft 82 kts 81°
2026-05-05 09:46 56.72691 60.73692 1936 ft 97 kts 90°
2026-05-05 09:46 56.72713 60.74978 1842 ft 102 kts 95°
2026-05-05 09:46 56.72691 60.76194 1804 ft 89 kts 96°
2026-05-05 09:46 56.72659 60.77246 1877 ft 83 kts 94°
2026-05-05 09:47 56.72623 60.78305 1877 ft 83 kts 96°
2026-05-05 09:47 56.72575 60.79328 1868 ft 82 kts 97°
2026-05-05 09:47 56.72487 60.80368 1863 ft 84 kts 101°
2026-05-05 09:47 56.72384 60.81438 1799 ft 86 kts 101°
2026-05-05 09:48 56.72314 60.82501 1739 ft 84 kts 101°
2026-05-05 09:48 56.72232 60.83549 1735 ft 84 kts 99°
2026-05-05 09:48 56.72300 60.84602 1625 ft 82 kts 74°
2026-05-05 09:48 56.72556 60.85476 1543 ft 74 kts 49°
2026-05-05 09:49 56.72929 60.86021 1450 ft 65 kts 20°
2026-05-05 09:49 56.73330 60.86126 1410 ft 56 kts 358°
2026-05-05 09:49 56.73728 60.86057 1378 ft 58 kts 345°
2026-05-05 09:49 56.74110 60.85875 1308 ft 56 kts 335°
2026-05-05 09:50 56.74464 60.85543 1221 ft 58 kts 328°
2026-05-05 09:50 56.74667 60.84930 1146 ft 60 kts 281°
2026-05-05 09:50 56.74656 60.84249 1126 ft 47 kts 278°
2026-05-05 09:50 56.74657 60.83673 1086 ft 46 kts 282°
2026-05-05 09:51 56.74649 60.83169 1054 ft 33 kts 281°
2026-05-05 09:51 56.74651 60.82760 993 ft 26 kts 281°
2026-05-05 09:51 56.74654 60.82523 966 ft 18 kts 279°
2026-05-05 09:51 56.74650 60.82346 932 ft 11 kts 278°
2026-05-05 09:52 56.74658 60.82210 878 ft 9 kts 278°
2026-05-05 09:52 56.74657 60.82097 821 ft 7 kts 274°
2026-05-05 09:52 56.74659 60.82043 790 ft 4 kts 271°
2026-05-05 09:52 56.74659 60.82019 776 ft 2 kts 281°
2026-05-05 09:53 56.74660 60.82020 776 ft 1 kts 29°
2026-05-05 09:53 56.74661 60.82025 774 ft 1 kts 70°
2026-05-05 09:53 56.74661 60.82036 769 ft 3 kts 87°
2026-05-05 09:53 56.74662 60.82053 769 ft 0 kts 91°
2026-05-05 09:54 56.74661 60.82106 769 ft 9 kts 94°
2026-05-05 09:54 56.74676 60.82190 769 ft 6 kts 29°
2026-05-05 09:54 56.74725 60.82201 769 ft 7 kts 358°
2026-05-05 09:54 56.74765 60.82175 769 ft 6 kts 308°
2026-05-05 09:55 56.74787 60.82110 769 ft 6 kts 297°
2026-05-05 09:55 56.74810 60.82030 769 ft 8 kts 294°
2026-05-05 09:55 56.74788 60.81966 769 ft 7 kts 228°
2026-05-05 09:55 56.74752 60.81879 769 ft 9 kts 234°
2026-05-05 09:56 56.74733 60.81803 769 ft 5 kts 276°
2026-05-05 09:56 56.74741 60.81746 769 ft 4 kts 324°
2026-05-05 09:56 56.74766 60.81741 770 ft 4 kts
2026-05-05 09:56 56.74799 60.81740 769 ft 4 kts 360°
2026-05-05 09:57 56.74809 60.81740 769 ft 0 kts